{"data":{"norad_id":26113,"intl_designator":"2000-017A","name":"IMAGE","alt_names":[],"object_type":"PAYLOAD","status":"ACTIVE","operator":null,"country":"US","launch_date":"2000-03-25","launch_site_code":"AFWTR","launch_vehicle":null,"mission":null,"orbit_class":"UNKNOWN","rcs_meters":2.395,"size_class":null,"mass_kg":null,"dimensions":null,"purposes":[],"wikipedia_slug":null,"has_3d_model":false,"image_url":null,"decayed_at":null,"tle_current":{"epoch":"2026-05-20T09:48:00.949248Z","epoch_age_seconds":465723,"freshness":"STALE","line1":"1 26113U 00017A   26140.40834432  .00000106  00000+0  33926-1 0  9992","line2":"2 26113  94.2067 315.0050 7452477 290.9630   8.3365  1.68665746161037","mean_motion":1.68665746,"eccentricity":0.7452477,"inclination_deg":94.2067,"raan_deg":315.005,"arg_perigee_deg":290.963,"mean_anomaly_deg":8.3365,"bstar":0.033926,"rev_number":16103,"period_min":853.75960095656,"perigee_km":1216.4126784498,"apogee_km":45650.324995634,"semimajor_km":29811.505837042,"source":"CELESTRAK","updated_at":"2026-05-25T13:37:55.022072Z"}}}